This demonstration page uses our WeatherBlox Daily Observations layout. Learn more.

Left ArrowRight Arrow

36.17497, -115.13722

Hourly Observations for January 16, 2019

Temp ( °F °C ) Dew Point ( °F °C ) Humidity (%) Winds ( mph kmh ) Pressure ( in mb ) Visibility ( mi km ) Precip ( " mm )
12:00 am 00:00 Partly Cloudy 47 8.3 45 7.2 93 93 S 10 17 30.09 1019 9 14.48406 0 0
12:53 am 00:53 Mostly Cloudy 46 7.8 45 7.2 96 96 SSE 8 13 30.11 1020 10 16.0934 0 0
1:53 am 01:53 Partly Cloudy 48 8.9 43 6.1 83 83 SSE 9 15 30.12 1020 10 16.0934 0 0
2:53 am 02:53 Clear 47 8.3 44 6.7 90 90 ENE 6 9 30.14 1021 10 16.0934 0 0
3:53 am 03:53 Clear 45 7.2 43 6.1 93 93 NNE 6 9 30.14 1021 10 16.0934 0 0
4:53 am 04:53 Mostly Clear 46 7.8 44 6.7 93 93 N 3 6 30.14 1021 10 16.0934 0 0
5:13 am 05:13 Mostly Cloudy 46 7.8 44 6.7 93 93 N 3 6 30.09 1019 10 16.0934 0 0
5:29 am 05:29 Partly Cloudy 45 7.2 43 6.1 93 93 ENE 3 6 30.09 1019 10 16.0934 0 0
5:53 am 05:53 Clear 46 7.8 44 6.7 93 93 NE 3 6 30.15 1021 10 16.0934 0 0
6:53 am 06:53 Partly Cloudy 46 7.8 43 6.1 89 89 Calm 30.18 1022 10 16.0934 0 0
7:09 am 07:09 Mostly Cloudy 46 7.8 44 6.7 93 93 ENE 10 17 30.12 1020 10 16.0934 0 0
7:53 am 07:53 Cloudy 48 8.9 45 7.2 89 89 Calm 30.2 1023 10 16.0934 0 0
8:53 am 08:53 Mostly Cloudy 50 10 46 7.8 86 86 Calm 30.23 1024 10 16.0934 0 0
9:18 am 09:18 Mostly Cloudy 52 11.1 45 7.2 77 77 ENE 3 6 30.18 1022 10 16.0934 0 0
9:28 am 09:28 Mostly Cloudy 53 11.7 45 7.2 74 74 VRB 3 6 30.15 1021 10 16.0934 0 0
9:35 am 09:35 Partly Cloudy 53 11.7 45 7.2 74 74 VRB 6 9 30.15 1021 10 16.0934 0 0
9:53 am 09:53 Mostly Sunny 54 12.2 45 7.2 72 72 VRB 3 6 30.26 1025 10 16.0934 0 0
10:53 am 10:53 Mostly Sunny 55 12.8 45 7.2 69 69 E 6 9 30.26 1025 10 16.0934 0 0
11:53 am 11:53 Mostly Sunny 58 14.4 45 7.2 62 62 S 9 15 30.22 1023 10 16.0934 0 0
12:53 pm 12:53 Sunny 57 13.9 46 7.8 67 67 ESE 10 17 30.19 1022 10 16.0934 0 0
1:53 pm 13:53 Sunny 56 13.3 48 8.9 75 75 E 14 22 30.18 1022 10 16.0934 0 0
2:53 pm 14:53 Sunny 56 13.3 48 8.9 75 75 E 14 22 30.2 1023 10 16.0934 0 0
3:53 pm 15:53 Sunny 56 13.3 48 8.9 75 75 E 10 17 30.21 1023 10 16.0934 0 0
4:53 pm 16:53 Mostly Cloudy 54 12.2 48 8.9 80 80 E 8 13 30.2 1023 10 16.0934 0 0
5:53 pm 17:53 Mostly Cloudy 53 11.7 47 8.3 80 80 ENE 7 11 30.23 1024 10 16.0934 0 0
6:53 pm 18:53 Mostly Clear 52 11.1 47 8.3 83 83 ENE 7 11 30.24 1024 10 16.0934 0 0
7:53 pm 19:53 Mostly Cloudy 52 11.1 47 8.3 83 83 ENE 5 7 30.23 1024 10 16.0934 0 0
8:53 pm 20:53 Clear 51 10.6 47 8.3 86 86 E 8 13 30.22 1023 10 16.0934 0 0
9:53 pm 21:53 Partly Cloudy 50 10 47 8.3 89 89 Calm 30.23 1024 10 16.0934 0 0
10:53 pm 22:53 Clear 50 10 47 8.3 89 89 E 6 9 30.22 1023 10 16.0934 0 0
11:53 pm 23:53 Mostly Cloudy 51 10.6 47 8.3 86 86 ENE 3 6 30.19 1023 10 16.0934 0 0

Powered by AerisWeather